Wind_Speed
6 4 4 8 10 8 11 12 14 19 13 14 15 12 14 16 15 11 10 13 5 4 3 6 9 10 11 12 13 14 15 15 13 13 13 13 12 13 12 11 11 9 8 8 7 8 9 9 8
5 3 2 7 9 13 12 9 6 23 18 14 17 13 11 12 10 8 6 6 7 6 6 8 9 10 12 12 13 14 14 13 12 12 11 10 9 9 9 8 8 9 9 9 8 9 9 8 7
2 1 4 5 15 17 11 20 32 25 20 18 11 13 11 9 6 11 10 7 7 10 10 9 8 9 10 11 11 11 10 9 8 9 8 8 8 8 7 8 10 10 9 9 9 11 10 7 8
6 6 7 11 15 10 22 23 29 30 15 21 16 11 12 10 6 13 14 14 11 9 10 13 11 11 11 10 10 8 6 7 7 7 8 8 8 10 10 11 12 11 9 10 11 12 11 9 8
10 17 16 17 14 2 14 29 34 33 28 25 20 3 11 15 6 4 9 11 12 12 12 12 13 13 12 11 10 9 9 9 9 9 9 11 12 13 13 13 13 12 11 10 11 11 10 9 9
8 17 13 14 18 7 20 31 26 19 24 24 23 24 11 9 10 4 9 14 14 13 12 12 13 13 15 14 13 12 11 11 11 11 12 13 14 15 15 15 15 15 14 12 12 10 9 9 11
12 11 6 21 11 13 24 30 35 32 21 24 29 20 4 8 15 4 10 10 10 11 11 12 12 12 13 14 13 13 12 12 12 11 12 14 15 16 16 16 16 17 16 16 13 12 11 10 12
10 5 17 16 13 16 23 27 30 25 22 18 12 11 15 6 13 19 10 14 18 12 10 12 14 14 13 14 13 13 12 12 12 12 12 12 15 16 15 15 16 17 19 17 15 14 13 12 14
13 21 19 17 8 16 30 23 23 20 25 20 19 11 7 8 16 15 16 16 13 15 12 12 14 14 14 14 13 12 10 10 10 11 13 13 15 21 18 20 20 22 20 18 18 14 15 14 15
7 8 6 18 5 19 25 25 16 12 23 24 23 15 13 4 16 19 21 23 15 7 13 10 13 14 12 11 10 9 8 10 11 12 13 14 13 18 19 17 17 18 17 15 18 17 16 15 14
4 4 0 15 23 27 30 23 16 14 17 24 29 28 28 19 14 17 20 23 19 14 11 12 12 12 12 12 10 10 10 11 14 16 16 18 17 13 13 15 17 22 16 14 16 18 17 16 15
2 2 3 3 11 24 21 22 20 8 14 22 27 24 24 20 13 16 16 20 20 18 15 13 14 8 7 7 11 17 18 17 19 19 20 24 26 23 20 19 16 14 18 15 15 16 18 16 17
4 4 6 8 9 9 14 18 14 8 17 26 30 31 25 6 5 11 16 19 20 18 13 13 14 11 9 9 12 21 20 12 21 20 17 26 28 28 27 22 16 15 10 15 14 14 16 18 18
1 3 5 9 10 12 14 12 7 1 19 27 29 26 23 17 7 5 13 16 20 19 18 11 12 12 12 12 16 19 16 20 18 21 16 26 29 27 24 24 21 17 15 12 16 16 16 20 20
7 6 8 7 5 10 11 5 5 6 18 24 26 30 29 17 5 8 13 16 18 18 19 12 12 15 16 18 15 19 20 23 18 19 23 24 30 35 26 23 23 22 18 16 17 17 18 18 21
20 11 2 13 20 13 5 2 5 4 13 21 25 27 32 40 20 13 10 13 16 17 17 19 17 16 19 16 18 20 20 23 16 22 27 27 28 33 36 30 26 23 22 21 18 21 21 20 22
19 13 9 8 16 6 7 6 3 12 19 26 27 28 38 30 25 17 13 11 11 12 17 18 17 21 19 16 17 21 24 25 20 25 29 29 31 34 38 34 27 27 24 24 20 23 23 24 21
15 6 3 10 21 13 9 10 16 19 24 28 28 24 33 26 19 16 17 12 11 13 17 19 16 18 18 14 17 20 25 25 22 26 30 29 28 29 35 32 20 21 26 29 19 22 22 24 21
16 12 12 18 12 14 9 9 10 12 21 19 23 28 20 23 18 20 15 15 15 15 18 19 21 21 19 15 22 23 28 26 27 30 29 25 25 27 33 33 17 23 25 31 19 17 20 20 20
17 18 14 17 21 10 15 18 26 11 16 32 21 21 22 22 11 16 19 21 20 19 23 22 26 21 15 15 20 24 24 27 27 25 26 23 28 27 27 26 12 17 18 26 23 15 13 14 18
17 11 11 20 21 9 7 9 12 12 21 32 16 21 20 16 17 15 19 21 22 25 23 32 8 14 11 15 23 23 25 24 23 24 24 24 25 26 24 23 14 9 25 27 30 19 18 19 22
7 11 10 13 15 8 10 14 18 23 27 24 24 11 13 14 11 14 18 22 20 22 20 19 17 15 16 19 21 22 21 19 17 20 21 20 21 23 24 22 22 21 22 17 11 12 17 21 23
2 5 2 3 4 3 5 20 22 22 26 19 17 9 12 12 11 11 13 16 16 15 19 19 19 20 19 17 15 14 12 15 17 17 19 19 20 19 18 18 17 15 14 11 14 20 22 24 28
3 9 6 1 4 9 14 12 19 25 19 21 13 8 11 10 10 12 14 13 13 10 11 12 14 15 15 14 14 16 16 18 20 21 22 21 22 23 23 21 19 17 17 18 19 25 24 26 29
9 9 9 3 13 12 10 15 18 20 22 27 18 23 17 17 15 14 14 13 12 10 12 12 10 9 9 10 14 16 16 17 19 21 22 21 22 23 23 23 23 21 20 19 20 21 24 26 30
14 11 7 8 9 7 10 12 15 19 22 23 24 16 17 18 17 16 15 15 13 13 14 11 10 10 11 12 13 13 14 14 16 18 20 20 22 23 25 25 24 24 24 24 22 22 25 28 28
14 15 15 8 3 3 11 14 18 22 25 25 29 22 24 12 13 18 18 18 20 20 18 17 16 15 15 15 16 16 15 16 15 16 18 19 18 22 26 27 26 27 27 27 26 25 25 26 27
13 17 12 10 13 8 8 17 16 20 19 21 27 35 32 25 10 10 20 20 21 20 19 21 23 22 20 20 20 19 20 20 20 20 19 21 22 22 26 28 29 30 30 31 31 29 27 28 31
12 17 18 18 15 13 7 16 12 15 19 27 32 38 40 42 35 32 26 23 23 26 24 24 26 29 28 26 25 25 25 25 24 23 22 23 23 24 27 29 31 33 35 34 34 34 31 30 31
7 9 16 14 14 20 20 9 7 12 17 21 25 34 39 43 41 38 36 33 26 26 28 32 30 27 30 33 33 31 31 31 30 28 27 27 28 29 30 32 33 35 37 37 35 36 35 33 32
Wind_Direction
232 259 338 330 50 8 29 49 32 358 330 305 302 339 337 339 3 2 343 343 304 289 230 229 238 247 254 259 267 272 276 277 281 285 287 290 290 289 286 287 284 283 280 273 270 265 260 259 260
232 248 33 353 16 43 48 10 260 334 320 300 319 316 328 332 15 7 348 311 304 286 268 261 265 268 271 272 274 274 277 285 288 292 295 293 291 286 289 290 285 286 285 279 270 257 242 237 245
190 154 148 28 41 19 11 341 331 321 299 284 287 287 299 315 6 13 359 355 328 307 299 284 277 271 267 263 268 271 287 296 297 294 295 297 293 286 285 284 283 278 274 268 256 245 229 236 254
125 110 119 46 29 28 335 313 313 319 263 276 262 277 285 317 7 19 5 352 343 317 293 289 288 284 282 279 277 283 291 287 288 288 287 287 286 284 286 283 279 274 267 261 251 238 227 239 258
128 127 113 103 88 111 288 295 295 307 299 293 148 267 325 302 296 328 357 344 339 330 320 305 292 284 282 284 284 282 286 290 286 290 300 298 296 295 295 294 291 287 278 264 250 240 233 244 257
148 157 165 101 106 251 276 293 300 308 312 307 307 305 311 329 289 25 18 352 352 339 321 305 295 291 288 287 286 289 292 294 296 302 300 301 303 297 295 295 292 289 288 279 256 252 245 243 258
156 169 261 90 61 253 302 301 297 304 308 294 305 312 257 342 290 344 35 359 349 346 334 324 310 298 294 291 293 292 293 298 298 301 306 307 303 300 301 299 295 287 279 276 268 255 255 250 262
111 171 125 76 12 316 285 289 290 307 300 297 288 305 317 308 290 303 340 7 342 339 342 341 328 321 322 320 313 311 312 307 313 317 315 320 311 302 296 293 295 290 280 265 262 250 246 250 261
134 144 121 79 339 282 280 292 298 310 287 306 323 252 123 312 296 319 320 333 342 340 341 342 346 334 331 331 328 320 317 316 321 325 321 321 318 311 324 315 312 296 290 276 260 256 245 250 258
131 169 166 122 219 250 268 277 303 303 306 318 311 316 64 3 321 328 340 327 337 23 356 359 9 344 351 336 321 306 318 322 320 321 320 318 324 322 317 314 313 301 300 286 265 256 252 256 260
126 219 86 173 197 229 254 273 292 298 313 309 310 311 324 331 327 333 333 338 338 360 360 18 32 352 6 320 310 301 314 316 324 327 325 315 311 297 306 325 335 333 321 295 280 262 260 267 270
170 299 278 274 232 236 251 261 273 256 274 290 296 300 313 310 342 340 347 347 345 350 4 18 41 44 330 323 348 347 335 334 337 330 334 331 321 315 313 315 319 323 324 309 287 272 262 260 265
217 240 258 269 264 248 247 259 265 273 294 293 300 310 309 282 355 352 3 5 19 14 11 11 12 15 7 29 15 6 10 360 346 346 336 349 340 318 307 301 307 303 309 310 296 278 267 268 264
323 280 291 273 276 277 268 277 262 280 295 293 309 307 283 168 157 353 5 10 20 22 12 7 356 353 343 354 14 17 7 7 358 356 332 342 341 332 311 296 294 298 295 298 298 288 269 270 264
35 356 299 264 287 282 286 301 61 146 287 302 303 313 316 18 351 87 4 1 16 10 12 11 340 337 329 331 350 351 1 354 356 349 346 340 343 345 332 296 278 285 287 281 287 289 281 266 267
55 40 66 11 349 12 357 286 229 259 267 272 291 299 306 309 340 356 345 352 10 3 347 349 349 322 318 339 336 344 347 343 347 350 341 335 340 340 340 317 277 265 274 276 275 278 278 273 272
61 30 346 348 331 37 67 120 190 248 233 250 264 284 290 304 325 321 320 330 346 5 350 348 340 322 322 342 343 338 336 332 332 333 334 338 336 336 333 322 294 259 264 274 277 277 277 277 278
76 75 57 280 296 306 234 221 264 227 241 253 272 285 293 303 307 332 302 314 320 332 330 325 339 323 318 333 337 331 330 322 327 333 335 335 335 338 340 328 299 278 264 268 274 277 274 277 275
154 150 190 254 294 310 247 270 268 288 303 304 285 275 285 290 312 315 309 312 321 317 311 309 315 311 311 322 319 320 328 330 334 329 333 332 339 335 343 326 306 280 272 264 260 285 283 285 290
175 193 229 275 279 282 256 256 282 329 309 320 275 275 283 291 285 290 307 318 312 314 301 299 299 301 292 309 313 320 331 328 324 331 340 333 339 342 344 341 311 281 297 293 259 263 274 302 308
188 214 222 242 278 279 256 294 322 312 337 337 284 262 257 270 276 285 294 306 316 311 304 310 286 323 289 304 308 315 323 330 323 342 347 342 341 347 351 358 11 307 307 301 267 247 282 289 290
206 231 223 278 280 237 300 299 320 321 337 336 332 328 281 287 284 286 295 302 315 308 311 331 330 314 313 307 310 317 327 328 345 349 345 346 348 348 348 347 354 355 356 342 300 308 311 309 307
20 133 150 289 122 56 246 272 290 302 330 342 347 324 301 309 298 338 327 311 310 311 312 310 303 304 312 317 323 333 347 343 339 334 332 334 339 340 337 339 342 342 343 328 305 305 311 304 312
211 174 159 146 317 282 289 261 273 295 318 335 352 357 334 329 337 341 325 323 316 315 329 327 322 322 324 327 326 329 332 327 327 328 328 333 335 336 338 340 341 339 330 319 309 317 307 304 304
213 207 242 341 261 355 348 248 284 294 310 329 357 3 354 341 342 327 323 327 325 322 321 324 318 310 318 324 326 323 321 320 322 324 324 324 324 325 324 325 329 329 325 316 309 307 302 302 299
251 243 242 219 273 21 328 291 285 284 302 317 337 336 349 329 322 312 311 308 305 306 308 310 309 306 310 310 311 312 311 314 316 316 317 318 319 319 318 322 323 322 320 318 320 312 306 310 310
241 243 264 246 226 345 254 253 276 319 287 304 325 316 317 291 315 313 309 311 308 305 302 299 300 300 301 300 299 299 298 299 303 306 302 301 304 306 308 313 315 315 314 314 316 316 313 310 311
247 255 259 258 192 198 277 317 324 300 329 320 321 312 310 310 289 307 306 297 288 286 288 291 286 283 281 280 280 284 292 297 297 299 302 296 295 297 301 302 308 311 312 312 312 309 311 311 312
224 239 256 245 237 237 242 327 340 331 324 321 316 314 314 305 307 308 308 303 306 301 297 286 285 283 282 280 278 281 284 286 289 291 295 299 297 303 305 305 308 309 310 311 309 307 308 308 308
262 265 266 264 245 240 231 229 283 320 302 305 297 294 295 298 302 308 306 304 304 301 299 298 291 286 284 285 286 285 285 287 289 289 293 297 299 299 302 302 301 302 304 306 307 306 307 307 307
Height
5908 5908 5907 5907 5911 5909 5907 5907 5901 5907 5906 5900 5899 5904 5901 5898 5900 5901 5897 5896 5898 5898 5897 5897 5898 5899 5900 5900 5900 5900 5900 5899 5898 5897 5897 5897 5896 5896 5896 5894 5893 5892 5892 5891 5889 5888 5887 5886 5886
5908 5908 5908 5907 5911 5906 5906 5904 5907 5908 5904 5900 5895 5897 5898 5898 5900 5898 5898 5899 5898 5899 5898 5898 5898 5898 5898 5898 5898 5898 5898 5897 5897 5896 5896 5895 5894 5894 5893 5892 5891 5890 5890 5889 5887 5887 5886 5885 5885
5909 5909 5909 5909 5907 5906 5908 5906 5906 5907 5902 5895 5895 5894 5894 5896 5901 5899 5895 5895 5895 5895 5896 5896 5896 5897 5897 5896 5896 5897 5897 5897 5895 5895 5894 5894 5893 5892 5891 5890 5890 5889 5888 5886 5885 5886 5885 5884 5884
5908 5910 5911 5909 5905 5906 5908 5908 5904 5902 5894 5893 5893 5890 5890 5892 5895 5899 5897 5895 5893 5893 5894 5895 5894 5895 5895 5895 5896 5896 5895 5895 5894 5893 5893 5891 5891 5890 5888 5887 5887 5886 5884 5884 5884 5884 5883 5883 5881
5907 5909 5911 5908 5906 5907 5912 5910 5905 5899 5894 5895 5875 5894 5896 5893 5895 5895 5895 5895 5895 5894 5893 5893 5894 5894 5894 5894 5895 5894 5894 5893 5893 5892 5891 5890 5889 5888 5887 5886 5885 5884 5882 5881 5881 5881 5880 5880 5879
5907 5908 5907 5904 5905 5916 5912 5906 5905 5904 5896 5892 5891 5900 5899 5893 5892 5890 5893 5893 5894 5893 5893 5893 5893 5893 5894 5894 5894 5893 5892 5892 5892 5891 5890 5889 5887 5885 5885 5883 5882 5881 5880 5879 5879 5878 5878 5877 5875
5907 5908 5910 5906 5908 5910 5913 5907 5901 5903 5902 5898 5894 5896 5895 5892 5894 5892 5894 5895 5895 5893 5892 5891 5891 5892 5892 5892 5892 5892 5892 5891 5890 5889 5888 5886 5884 5883 5882 5880 5879 5878 5877 5876 5876 5875 5875 5874 5872
5907 5911 5909 5910 5910 5913 5910 5908 5901 5897 5895 5891 5892 5892 5891 5891 5892 5888 5894 5895 5891 5891 5890 5889 5890 5890 5891 5891 5891 5891 5890 5889 5889 5887 5886 5885 5882 5881 5879 5878 5876 5874 5873 5872 5871 5872 5872 5871 5870
5906 5906 5906 5907 5910 5911 5906 5904 5901 5895 5883 5891 5888 5885 5882 5893 5892 5889 5890 5896 5898 5888 5888 5888 5889 5889 5890 5890 5890 5890 5888 5887 5886 5885 5884 5883 5880 5876 5876 5874 5873 5870 5869 5868 5868 5868 5869 5868 5867
5904 5905 5902 5902 5911 5907 5903 5902 5902 5897 5883 5887 5891 5890 5882 5890 5892 5889 5886 5889 5892 5892 5886 5887 5889 5888 5888 5888 5888 5886 5885 5884 5883 5882 5881 5879 5879 5876 5874 5872 5869 5867 5865 5865 5865 5866 5866 5865 5866
5902 5903 5901 5900 5903 5904 5904 5902 5901 5897 5889 5889 5888 5889 5888 5888 5888 5887 5885 5882 5883 5888 5888 5887 5889 5884 5887 5885 5884 5882 5882 5880 5880 5878 5878 5876 5875 5874 5869 5867 5866 5863 5863 5862 5862 5864 5864 5863 5863
5902 5902 5901 5902 5902 5900 5901 5900 5899 5896 5893 5889 5887 5890 5891 5886 5885 5885 5884 5882 5879 5880 5881 5883 5887 5887 5885 5884 5882 5881 5880 5879 5879 5878 5876 5874 5871 5869 5867 5866 5864 5862 5862 5861 5858 5859 5861 5861 5860
5901 5901 5901 5901 5900 5900 5899 5897 5896 5895 5890 5887 5886 5885 5884 5879 5882 5885 5884 5882 5880 5878 5878 5879 5881 5882 5881 5882 5882 5880 5879 5880 5876 5873 5872 5870 5867 5864 5862 5861 5859 5859 5858 5858 5857 5856 5857 5858 5858
5899 5899 5899 5900 5900 5898 5896 5896 5895 5896 5889 5887 5886 5883 5873 5854 5872 5883 5885 5883 5882 5880 5878 5878 5877 5880 5879 5879 5879 5878 5876 5875 5873 5871 5868 5867 5863 5860 5856 5855 5855 5853 5853 5853 5854 5854 5854 5853 5853
5897 5897 5897 5898 5898 5896 5895 5896 5896 5898 5891 5885 5881 5881 5870 5883 5885 5874 5887 5884 5879 5881 5880 5880 5878 5877 5877 5876 5876 5876 5874 5872 5870 5868 5865 5863 5858 5855 5852 5850 5849 5849 5848 5848 5850 5851 5851 5850 5849
5894 5896 5898 5894 5895 5895 5895 5895 5896 5897 5898 5896 5888 5884 5880 5876 5879 5877 5885 5885 5881 5880 5880 5881 5879 5877 5875 5875 5875 5874 5871 5869 5867 5865 5863 5860 5855 5850 5847 5843 5841 5842 5842 5844 5844 5846 5846 5846 5845
5892 5895 5893 5893 5895 5897 5896 5894 5895 5896 5896 5891 5891 5889 5879 5878 5874 5878 5881 5883 5881 5880 5878 5878 5879 5875 5873 5873 5873 5872 5869 5867 5865 5864 5860 5857 5852 5846 5841 5836 5833 5835 5837 5838 5838 5840 5840 5840 5841
5891 5895 5893 5895 5897 5896 5891 5893 5890 5890 5891 5887 5882 5882 5877 5869 5877 5875 5879 5879 5877 5877 5877 5875 5876 5874 5871 5871 5870 5869 5867 5863 5859 5859 5857 5854 5850 5843 5838 5831 5827 5829 5831 5832 5833 5834 5835 5834 5835
5894 5898 5898 5896 5897 5895 5891 5883 5887 5890 5890 5889 5887 5881 5878 5877 5876 5872 5876 5875 5875 5874 5873 5871 5871 5871 5868 5867 5865 5864 5863 5858 5855 5854 5853 5849 5846 5840 5836 5828 5825 5825 5826 5827 5828 5831 5830 5829 5829
5894 5897 5897 5895 5894 5895 5890 5890 5889 5893 5892 5889 5885 5884 5880 5878 5879 5876 5874 5873 5873 5872 5870 5870 5868 5866 5866 5865 5863 5860 5859 5857 5855 5853 5850 5846 5843 5839 5834 5829 5822 5820 5824 5824 5823 5825 5824 5824 5822
5893 5894 5893 5892 5890 5891 5890 5891 5888 5890 5889 5883 5875 5882 5881 5878 5875 5875 5872 5871 5869 5867 5865 5862 5860 5864 5863 5862 5859 5858 5856 5854 5852 5850 5847 5843 5841 5837 5833 5829 5824 5824 5823 5819 5818 5820 5821 5821 5820
5887 5887 5889 5890 5889 5889 5886 5885 5883 5884 5883 5883 5880 5877 5875 5874 5873 5872 5871 5868 5867 5863 5864 5858 5858 5860 5861 5858 5856 5856 5854 5851 5848 5847 5844 5841 5838 5835 5832 5829 5826 5824 5821 5819 5821 5821 5820 5819 5817
5887 5886 5887 5888 5887 5886 5886 5884 5884 5884 5884 5884 5882 5878 5872 5869 5867 5868 5869 5867 5866 5864 5861 5860 5860 5858 5857 5856 5855 5853 5851 5848 5846 5844 5841 5838 5835 5832 5829 5826 5824 5821 5819 5818 5817 5817 5815 5812 5810
5885 5886 5886 5886 5885 5883 5884 5882 5881 5880 5880 5878 5879 5875 5870 5867 5866 5865 5868 5866 5865 5864 5862 5860 5858 5857 5855 5854 5852 5849 5847 5844 5843 5841 5838 5835 5832 5829 5826 5824 5821 5820 5817 5816 5815 5812 5811 5809 5804
5882 5882 5883 5881 5880 5881 5878 5878 5877 5876 5873 5870 5868 5870 5870 5867 5865 5866 5866 5865 5864 5862 5861 5860 5858 5856 5854 5852 5849 5848 5846 5843 5840 5838 5835 5833 5830 5827 5824 5821 5819 5816 5814 5812 5810 5808 5805 5801 5797
5880 5879 5879 5877 5878 5880 5878 5874 5873 5870 5868 5869 5867 5869 5870 5867 5867 5866 5865 5863 5862 5860 5859 5858 5856 5854 5852 5850 5848 5846 5844 5842 5838 5835 5832 5830 5827 5824 5820 5817 5814 5812 5809 5807 5804 5801 5798 5794 5790
5877 5875 5877 5877 5879 5879 5873 5871 5869 5868 5867 5868 5864 5864 5866 5869 5867 5865 5864 5862 5859 5857 5855 5853 5852 5851 5849 5847 5845 5843 5841 5839 5836 5833 5830 5826 5824 5821 5816 5813 5810 5807 5804 5801 5798 5795 5792 5788 5784
5873 5874 5876 5875 5875 5876 5874 5870 5869 5866 5862 5861 5860 5859 5859 5859 5863 5863 5860 5859 5859 5857 5856 5853 5850 5847 5845 5843 5840 5838 5835 5833 5831 5828 5825 5822 5819 5817 5812 5808 5805 5801 5798 5794 5791 5789 5786 5782 5778
5869 5869 5869 5871 5873 5873 5873 5869 5866 5864 5862 5862 5859 5854 5853 5850 5853 5852 5853 5851 5849 5848 5850 5849 5846 5842 5841 5839 5837 5833 5830 5827 5825 5821 5818 5815 5812 5809 5805 5802 5798 5794 5791 5788 5784 5781 5778 5775 5771
5866 5867 5866 5867 5870 5869 5871 5872 5867 5867 5867 5865 5862 5856 5851 5848 5845 5844 5843 5843 5845 5844 5842 5838 5837 5837 5834 5830 5828 5827 5824 5821 5818 5815 5811 5808 5804 5801 5798 5794 5790 5787 5783 5779 5776 5772 5769 5765 5761